Cloud_Cover
5 25 15 12 23 23 12 16 16 0 2 3 5 0 0 0 0 0 0 0 0 0 0 0 0 2 0 11 82 22 30 68 87 49 5 92 40 41 26 12 64 0 0 0 0
18 20 19 3 18 0 0 0 10 14 14 3 11 7 0 0 0 0 0 0 0 0 0 0 0 0 1 28 100 76 5 82 6 3 31 55 15 100 5 26 36 2 0 0 0
17 20 20 15 5 14 2 0 5 19 13 27 19 12 0 0 0 0 0 0 0 0 0 0 0 0 5 89 100 14 22 5 81 5 1 5 68 91 34 95 9 100 84 0 0
17 18 20 12 13 14 11 9 14 11 0 7 2 18 0 0 0 0 0 0 0 0 0 0 0 0 5 32 32 8 97 2 2 5 1 5 7 0 0 2 5 100 100 20 0
12 10 12 16 10 14 19 5 7 21 8 0 12 21 0 0 0 0 0 0 0 0 0 0 0 0 5 21 65 44 25 2 5 92 0 0 10 7 1 5 4 95 99 1 4
11 6 3 7 21 18 23 0 0 8 4 28 36 29 0 0 0 0 0 0 0 0 0 0 0 0 0 0 5 12 7 47 1 6 10 0 1 46 8 1 8 14 85 26 34
11 4 2 25 22 21 17 0 0 0 29 56 62 0 0 0 0 0 0 0 0 0 0 0 0 0 0 0 0 1 7 13 45 97 99 5 81 95 91 54 53 58 24 100 96
0 0 0 21 22 10 0 0 0 0 87 92 19 0 0 0 0 0 0 0 0 0 0 0 0 0 0 0 0 0 0 2 98 100 94 53 84 100 88 76 18 82 98 100 100
0 0 0 4 4 0 0 0 0 0 69 24 0 0 0 0 0 0 0 0 0 0 0 0 0 0 0 0 0 0 15 44 100 91 62 53 80 100 80 80 90 74 100 99 85
0 0 0 0 0 0 0 0 0 0 22 0 0 0 0 0 0 0 0 0 0 0 0 0 0 0 0 0 0 4 85 100 23 30 0 0 0 71 100 88 98 100 100 99 97
0 0 0 0 32 0 9 0 0 0 0 0 0 0 0 0 0 0 0 0 0 0 0 0 0 0 0 0 0 1 58 83 100 61 0 0 0 0 7 100 12 100 100 100 100
0 0 0 0 50 9 60 0 0 0 0 0 0 0 0 0 0 0 0 0 0 0 0 0 0 0 0 0 0 0 0 3 0 1 0 0 0 0 2 2 98 16 95 95 8
0 0 0 0 16 17 0 0 0 0 0 0 0 0 0 0 0 0 0 0 0 0 0 0 0 0 0 0 0 0 0 0 0 0 5 0 0 0 4 0 75 7 100 82 92
0 0 0 28 9 0 0 0 0 0 0 0 0 0 0 0 0 0 0 0 0 0 0 0 0 0 0 0 0 0 0 0 3 3 0 0 0 0 0 0 2 98 4 87 98
0 0 0 64 0 0 0 0 0 0 0 0 0 0 0 0 0 0 0 0 0 0 0 0 0 0 0 0 0 0 0 0 0 5 0 4 0 0 0 2 5 47 100 94 14
0 0 9 11 1 0 0 0 0 0 0 0 0 0 0 0 0 0 0 0 0 0 0 0 0 0 0 4 0 0 4 7 98 54 2 5 3 0 2 3 5 0 0 71 33
0 0 47 0 0 0 0 0 0 0 0 2 0 0 0 0 0 0 0 0 0 0 1 4 4 5 5 4 1 2 5 27 100 59 2 5 6 5 50 5 2 0 0 0 0
0 1 0 0 0 0 0 0 0 0 79 91 11 0 0 0 0 0 0 0 0 0 5 5 5 5 5 0 4 5 2 5 5 0 5 36 60 68 33 52 7 0 0 0 0
0 0 0 0 0 0 0 0 0 0 0 22 17 0 0 0 0 2 0 0 0 0 4 5 5 5 43 14 5 6 10 4 6 5 1 1 4 13 96 57 5 2 0 0 0
0 0 0 0 0 0 0 0 0 0 0 0 0 0 0 80 36 0 0 0 2 4 5 5 5 5 79 71 71 5 11 8 5 10 5 5 4 75 65 40 62 25 4 0 0
0 0 0 0 0 0 0 0 0 0 0 0 0 0 0 0 35 100 6 4 3 0 5 5 5 5 21 96 6 12 5 5 5 5 7 12 52 34 100 83 89 59 4 0 5
0 0 0 0 0 0 0 0 0 0 0 0 3 0 0 0 1 5 49 100 100 8 85 5 1 5 7 33 72 6 56 5 5 5 5 5 78 69 72 1 4 3 86 5 4
0 0 0 0 0 0 0 0 0 1 18 0 0 1 5 5 2 1 1 45 8 84 82 72 5 4 5 5 17 88 8 48 34 12 90 94 100 100 41 93 41 38 6 5 1
0 0 0 0 0 0 0 0 0 4 38 48 2 0 2 5 5 17 5 1 5 11 14 74 5 5 8 53 5 96 85 59 93 97 74 45 100 95 45 54 1 3 36 5 24
0 0 0 0 0 0 0 0 2 2 3 5 6 23 23 5 5 18 11 81 39 50 82 87 94 12 10 94 100 19 82 99 100 100 78 100 55 100 8 26 35 7 10 10 34
0 0 5 5 5 5 5 3 5 5 5 5 5 11 33 30 5 69 100 100 100 6 5 75 84 100 55 100 100 100 100 100 100 100 100 100 100 100 74 100 27 43 82 14 5
5 5 5 2 0 0 4 5 8 5 64 90 38 86 100 97 41 100 100 100 100 100 79 67 96 96 82 100 100 82 100 100 100 100 93 63 81 100 94 5 4 1 5 5 6